カタログに戻る

STARLINK-36131

運用中通信VLEO
NORAD 67032·PAYLOAD·🇺🇸 United States

打ち上げ Dec 11, 2025 から Cape Canaveral Space Force Station

Loading…

次のパス (今後24時間)

TLE

最新Source: CelesTrak SupGP

元期: Sep 14, 2026, 23:15 UTC

1 67032C 25294C   26257.96923611  .00027012  00000+0  97813-3 0  2578
2 67032  43.0020  48.8491 0001536 274.0831 326.8034 15.27572656    16

AllMySatでSTARLINK-36131をリアルタイム追跡

Download on the App Store